SL-8 DEB, 1618

Orbit data source: Space-Track

SL-8 DEB, 1618 is space debris in LEO originally from a launch on Sat, 18 Sep 1965 UTC launched from the Tyuratam Missile And Space Complex (TTMTR). Debris objects in space refer to the collection of defunct objects orbiting the Earth. Examples of debris include non-operational satellites, rocket bodies, and fragments generated from explosions, collisions, or faulty payload assembly.

Loading next visibility...
Identifier
1618, 1965-073K
Orbit
LEO
Country
Flag of CISCIS
Related business
Manufacturer
Unknown
Mission
Spacecraft
Bus & Motor
Unknown
Mass
Unknown
Launch date (UTC)
1965-09-18 (60 years ago)
Launch vehicle
Unknown
Launch site
Tyuratam Missile And Space Complex (TTMTR)
Object type
Payload
Rocket body
Debris
Shape & HBR
Unknown shape, 0.2 m
Radar Cross Section
Medium (>0.1 m² and <1 m²)

Expand to show TLE details & history
Last TLE update: 1 day ago

TLE from 1 day ago
0 SL-8 DEB
1  1618U 65073K   26071.35376745  .00000078  00000-0  13087-2 0  9999
2  1618  56.1767  39.9358 0226213 135.9050  28.3469 12.30375466711194
Epoch: 2026-03-12T08:29Z
TLE epoch observation values (Epoch: 2026-03-12T08:29:25.507Z)
Latitude
11.98532°
Longitude
-85.5619°
Altitude
1,391.121 km
Speed
7.236 km/s
True Right ascension
14h 07m 11s
True Declination
11° 55' 17"
Sunlit
Object was in full shadow at epoch
Visualization orbit readout
Latitude
Unknown
Longitude
Unknown
Altitude
Unknown
Speed
Unknown
Apparent Right ascension
Unknown
Apparent Declination
Unknown
Sunlit
N/A
Visualization observer readout
Local Sidereal Time
14:09:24
Azimuth
Unknown
Elevation
Unknown
Doppler factor
Unknown
Orbital elements
Apogee altitude
1,726.765 km
Perigee altitude
1,368.19 km
Semi-major axis
7,925.614 km
Eccentricity
0.02262
Inclination
56.1767°
RAAN
39.9358°
Arg. of periapsis
135.905°
True anomaly
29.60898°
Mean anomaly
28.3469°
Eccentric anomaly
28.97476°
Mean motion
3.07605 °/min
Orbital period
117.03 mins
BSTAR
0.0013087
Loading maneuver chart data...
Computing Atmospheric mass density...
Loading historical data...
Loading historical data...
Loading historical data...
Loading historical data...
Loading historical data...
Loading historical data...
Loading historical data...

Documentation

Showing up to 5 results
|